221  
ASUS44 KLZK 261905  
RWRLZK  
 
WEATHER ROUNDUP FOR ARKANSAS  
NATIONAL WEATHER SERVICE LITTLE ROCK AR  
200 PM CDT THU APR 26 2018  
 
NOTE: "FAIR" INDICATES FEW OR NO CLOUDS BELOW 12,000 FEET WITH NO  
SIGNIFICANT WEATHER AND/OR S TO VISIBILITY
.  
 
ARZ001-003-010-029-262000-  
NORTHWEST ARKANSAS  
 
CITY SKY/WX TMP DP RH WIND PRES REMARKS
 
FAYETTEVILLE CLOUDY 56 48 74 N6 30.00S  
FORT SMITH MOSUNNY 64 50 60 VRB5 29.99F  
HARRISON CLOUDY 57 49 74 NW7 29.98F  
BENTONVILLE CLOUDY 56 47 71 VRB7 30.03F  
ROGERS CLOUDY 56 47 71 NW9 30.01F  
SILOAM SPGS CLOUDY 56 49 77 NW7 30.02F  
HIGHFILL CLOUDY 57 47 69 NW6 30.01F  
SPRINGDALE CLOUDY 55 48 76 N3 30.02F  

 
 
ARZ004-005-016-262000-  
NORTH CENTRAL ARKANSAS  
 
CITY SKY/WX TMP DP RH WIND PRES REMARKS
 
BATESVILLE PTSUNNY 65 50 58 N8 29.93F  
FLIPPIN MOSUNNY 63 50 62 N12 29.96F  
MTN HOME PTSUNNY 62 48 60 NE8 29.95F  

 
 
ARZ040-041-262000-  
WEST CENTRAL ARKANSAS  
 
CITY SKY/WX TMP DP RH WIND PRES REMARKS
 
MENA CLOUDY 61 52 72 CALM 30.00F  
MOUNT IDA CLOUDY 62 51 67 VRB5 29.95F  

 
 
ARZ009-017-025-026-028-262000-  
NORTHEAST ARKANSAS  
 
CITY SKY/WX TMP DP RH WIND PRES REMARKS
 
CORNING FAIR 57 52 82 NW8 29.94F  
JONESBORO CLOUDY 58 54 86 VRB7G18 29.92S  
NEWPORT CLOUDY 60 54 80 N13 29.93S  
WALNUT RIDGE PTSUNNY 58 54 86 NE14 29.93F  
BLYTHEVILLE CLOUDY 61 54 77 N18 29.90S  

 
 
ARZ022-023-033-042-044-262000-  
CENTRAL ARKANSAS  
 
CITY SKY/WX TMP DP RH WIND PRES REMARKS
 
LITTLE ROCK PTSUNNY 64 50 60 NW16 29.94S  
N LITTLE ROCK N/A 62 53 73 N6 29.92S  
JACKSONVILLE PTSUNNY 65 52 62 NW9 29.93S  
CONWAY MOCLDY 64 52 63 N8G15 29.95S  
SEARCY PTSUNNY 67 55 65 N10G17 29.93S  
HOT SPRINGS CLOUDY 65 53 65 VRB3 29.96F  
RUSSELLVILLE CLOUDY 63 50 62 N12 29.96S  
CLINTON PTSUNNY 64 50 59 VRB6G16 29.95S  

 
 
ARZ036-262000-  
EAST ARKANSAS  
 
CITY SKY/WX TMP DP RH WIND PRES REMARKS
 
WEST MEMPHIS CLOUDY 62 57 83 N10 29.88F  

 
 
ARZ050-053-066-070-073-262000-  
SOUTHWEST ARKANSAS  
 
CITY SKY/WX TMP DP RH WIND PRES REMARKS
 
ARKADELPHIA CLOUDY 65 53 65 N9 29.97F  
CAMDEN CLOUDY 66 52 59 NW8 29.96F  
TEXARKANA CLOUDY 64 50 60 VRB3 29.98F  
EL DORADO FAIR 63 53 70 NW8 29.97F  
DE QUEEN CLOUDY 63 50 62 N8 29.97F  

 
 
ARZ056-057-069-262000-  
SOUTHEAST ARKANSAS  
 
CITY SKY/WX TMP DP RH WIND PRES REMARKS
 
PINE BLUFF PTSUNNY 65 52 62 NW10 29.94F  
STUTTGART CLOUDY 64 55 72 N15 29.94R  
MONTICELLO CLOUDY 64 52 64 NW12 29.94F  
 

 
 
 
 
CLICK HERE TO GO TO PREVIOUS BULLETINS.

The Nexlab AR Page Main Text Page